{"data":{"norad_id":64367,"epoch":"2026-05-25T02:55:45.797376Z","epoch_age_seconds":67522,"freshness":"FRESH","line1":"1 64367U 25126Z   26145.12205784  .00002380  00000+0  20714-3 0  9998","line2":"2 64367  70.0004 201.6184 0003967 263.8343  96.2364 14.98338660 52134","mean_motion":14.9833866,"eccentricity":0.0003967,"inclination_deg":70.0004,"raan_deg":201.6184,"arg_perigee_deg":263.8343,"mean_anomaly_deg":96.2364,"bstar":0.00020714,"rev_number":5213,"period_min":96.106443652732,"perigee_km":569.27197984164,"apogee_km":574.7862416339,"semimajor_km":6950.1661107378,"source":"CELESTRAK","updated_at":"2026-05-25T13:38:20.407382Z"}}